Retour au catalogue

STARLINK-37205

ActifCommunicationsVLEO
NORAD 68332·PAYLOAD·🇺🇸 United States

Lancé Mar 22, 2026 depuis Cape Canaveral Space Force Station

Loading…

Prochains Passages (prochaines 24 heures)

TLE

FraisSource: CelesTrak SupGP

Époque: Sep 15, 2026, 04:18 UTC

1 68332C 26059M   26258.17965278 -.00038291  00000+0 -11315-2 0  2587
2 68332  53.1574 186.2421 0001330  85.2695 279.9651 15.34404615    18

Suivez STARLINK-37205 en temps réel avec AllMySat

Download on the App Store